OK2MK-6 Weather Reports


time (UTC)temp
C
wind
direction
speed
KPH
gust
KPH
rain 1hr
cm
rain 24hr
cm
rain mn
cm
humidity
%
barometer
mb
20260905195307 -17 338 4.8 4.8 0.00 0.51 0.51 75 1018.7
20260905194300 -17 293 4.8 4.8 0.00 0.51 0.51 75 1018.5
20260905193256 -17 0 4.8 4.8 0.00 0.51 0.51 74 1018.5
20260905192255 -17 293 1.6 1.6 0.00 0.51 0.51 74 1018.4
20260905191254 -17 293 3.2 3.2 0.00 0.51 0.51 73 1018.1
20260905190253 -17 293 3.2 3.2 0.00 0.51 0.51 73 1018.2
20260905185250 -17 0 1.6 1.6 0.00 0.51 0.51 73 1018.0
20260905184247 -17 270 4.8 4.8 0.00 0.51 0.51 73 1017.8
20260905183243 -17 0 4.8 4.8 0.00 0.51 0.51 73 1017.7
20260905182240 -17 293 4.8 4.8 0.00 0.51 0.51 71 1017.5
20260905181237 -17 293 3.2 3.2 0.00 0.51 0.51 71 1017.3
20260905180237 -17 338 3.2 3.2 0.00 0.51 0.51 70 1017.2
20260905175236 -17 315 3.2 3.2 0.00 0.51 0.51 70 1016.9
20260905174233 -17 293 3.2 3.2 0.00 0.51 0.51 70 1016.8
20260905173231 -17 293 6.4 8.0 0.00 0.51 0.51 69 1016.5
20260905172228 -17 293 9.7 12.9 0.00 0.51 0.51 69 1016.3
20260905171226 -17 0 12.9 12.9 0.00 0.51 0.51 69 1016.2
20260905170225 -17 293 9.7 14.5 0.00 0.51 0.51 69 1016.0
20260905165224 -17 0 6.4 9.7 0.00 0.51 0.51 69 1015.8
20260905164222 -17 315 8.0 9.7 0.00 0.51 0.51 69 1015.3
20260905163219 -17 0 8.0 8.0 0.00 0.51 0.51 69 1015.6
20260905162216 -17 293 14.5 14.5 0.00 0.51 0.51 68 1015.5
20260905161212 -17 293 8.0 11.3 0.00 0.51 0.51 66 1015.4
20260905160210 -17 315 11.3 12.9 0.00 0.51 0.51 65 1015.3
20260905155210 -17 338 8.0 9.7 0.00 0.51 0.51 64 1015.1
20260905154206 -17 315 14.5 20.9 0.00 0.51 0.51 63 1015.0
20260905153204 -17 315 17.7 22.5 0.00 0.51 0.51 62 1015.1
20260905152201 -17 270 6.4 9.7 0.00 0.51 0.51 63 1015.0
20260905151158 -17 0 17.7 20.9 0.00 0.51 0.51 62 1015.1
20260905150158 -17 338 24.1 30.6 0.00 0.51 0.51 62 1015.1
20260905145154 -17 0 12.9 17.7 0.00 0.51 0.51 61 1014.9
20260905144151 -17 315 14.5 20.9 0.00 0.51 0.51 60 1014.6
20260905143147 -17 293 4.8 4.8 0.00 0.51 0.51 61 1015.0
20260905142143 -17 293 17.7 19.3 0.00 0.51 0.51 60 1015.1
20260905141142 -17 293 16.1 22.5 0.00 0.51 0.51 60 1015.0
20260905140141 -17 315 11.3 16.1 0.00 0.51 0.51 60 1015.1
20260905135138 -17 0 9.7 9.7 0.00 0.51 0.51 59 1015.2
20260905134137 -17 270 8.0 12.9 0.00 0.51 0.51 59 1015.0
20260905133135 -17 270 14.5 17.7 0.00 0.51 0.51 59 1015.4
20260905132132 -17 270 14.5 17.7 0.00 0.51 0.51 59 1015.3
20260905131131 -17 225 4.8 8.0 0.00 0.51 0.51 57 1015.1
20260905130127 -17 315 16.1 20.9 0.00 0.51 0.51 59 1015.3
20260905125124 -17 293 22.5 29.0 0.00 0.51 0.51 58 1015.3
20260905124123 -17 270 11.3 16.1 0.00 0.51 0.51 58 1015.3
20260905123119 -17 338 12.9 20.9 0.00 0.51 0.51 57 1015.3
20260905122115 -17 293 17.7 25.7 0.00 0.51 0.51 60 1015.7
20260905121111 -17 293 17.7 20.9 0.00 0.51 0.51 60 1015.4
20260905120110 -17 338 25.7 29.0 0.00 0.51 0.51 60 1015.5
20260905115107 -17 293 20.9 24.1 0.00 0.51 0.51 62 1015.9
20260905114107 -17 293 19.3 24.1 0.00 0.51 0.51 59 1015.6
20260905113107 -17 270 11.3 14.5 0.00 0.51 0.51 61 1015.6
20260905112103 -17 293 11.3 12.9 0.00 0.51 0.51 60 1015.6
20260905111059 -17 293 20.9 29.0 0.00 0.51 0.51 61 1015.5
20260905110059 -17 293 20.9 25.7 0.00 0.51 0.51 61 1015.7
20260905105058 -17 293 8.0 9.7 0.03 0.48 0.51 62 1015.7
20260905104057 -17 0 19.3 22.5 0.03 0.48 0.51 63 1015.8
20260905103055 -17 293 8.0 8.0 0.03 0.48 0.51 65 1015.7
20260905102052 -17 293 11.3 14.5 0.03 0.48 0.51 64 1015.9
20260905101050 -17 338 16.1 19.3 0.00 0.48 0.48 66 1016.0
20260905100046 -17 293 14.5 17.7 0.00 0.48 0.48 64 1016.0
20260905095046 -17 338 9.7 12.9 0.00 0.48 0.48 63 1016.0
20260905094044 -17 315 12.9 19.3 0.00 0.48 0.48 64 1016.2
20260905093042 -17 315 3.2 3.2 0.00 0.48 0.48 60 1016.4
20260905092040 -17 338 12.9 17.7 0.00 0.48 0.48 53 1016.4
20260905091038 -17 0 9.7 11.3 0.00 0.48 0.48 45 1016.3
20260905090033 -17 270 12.9 16.1 0.00 0.48 0.48 44 1016.2
20260905085032 -17 338 11.3 12.9 0.00 0.48 0.48 42 1016.2
20260905084035 -17 293 20.9 25.7 0.00 0.48 0.48 47 1016.3
20260905083030 -17 270 12.9 14.5 0.00 0.48 0.48 42 1016.2
20260905082029 -17 293 6.4 11.3 0.00 0.48 0.48 48 1016.2
20260905081027 -17 248 12.9 14.5 0.00 0.48 0.48 64 1016.4
20260905080025 -17 293 9.7 12.9 0.00 0.48 0.48 61 1016.3
20260905075020 -17 293 6.4 11.3 0.00 0.48 0.48 62 1016.3
20260905074018 -17 338 8.0 9.7 0.00 0.48 0.48 75 1016.2
20260905073014 -17 315 4.8 6.4 0.00 0.48 0.48 82 1016.0
20260905072014 -17 293 9.7 9.7 0.00 0.48 0.48 83 1015.9
20260905071014 -17 293 4.8 6.4 0.00 0.48 0.48 83 1015.8
20260905070013 -17 293 6.4 8.0 0.00 0.48 0.48 85 1016.0
20260905065012 -17 338 6.4 8.0 0.00 0.48 0.48 90 1016.1
20260905064008 -17 338 8.0 8.0 0.00 0.48 0.48 92 1016.3
20260905063004 -17 315 8.0 11.3 0.00 0.48 0.48 93 1016.1
20260905062000 -17 0 4.8 4.8 0.00 0.48 0.48 93 1016.4
20260905060958 -17 315 4.8 4.8 0.00 0.48 0.48 94 1016.0
20260905055953 -17 0 4.8 6.4 0.18 0.30 0.48 94 1015.6
20260905054952 -17 293 9.7 11.3 0.18 0.30 0.48 95 1015.7
20260905053951 -17 225 4.8 6.4 0.18 0.30 0.48 95 1015.2
20260905052946 -17 248 3.2 3.2 0.15 0.30 0.46 92 1015.6
20260905051941 -17 338 6.4 6.4 0.10 0.30 0.41 92 1015.7
20260905050940 -17 293 8.0 9.7 0.08 0.30 0.38 92 1015.8
20260905045940 -17 293 9.7 11.3 0.18 0.10 0.30 93 1015.5
20260905044939 -17 315 8.0 11.3 0.08 0.10 0.18 91 1015.8
20260905043932 -17 293 11.3 14.5 0.03 0.10 0.15 89 1015.5
20260905042931 -17 338 4.8 6.4 0.00 0.10 0.10 88 1014.9
20260905041927 -17 338 6.4 8.0 0.00 0.10 0.10 90 1015.2
20260905040923 -17 0 8.0 9.7 0.00 0.10 0.10 90 1014.8
20260905035922 -17 293 6.4 6.4 0.08 0.03 0.10 91 1014.4
20260905034921 -17 338 3.2 3.2 0.08 0.03 0.10 89 1013.8
20260905033920 -17 315 1.6 1.6 0.03 0.03 0.08 89 1014.0
20260905032916 -17 293 8.0 8.0 0.03 0.03 0.08 89 1014.5
20260905031915 -17 338 4.8 4.8 0.03 0.03 0.08 89 1013.7
20260905030913 -17 338 3.2 4.8 0.03 0.03 0.08 89 1013.4
20260905025911 -17 315 6.4 8.0 0.03 0.00 0.03 89 1013.7
20260905024910 -17 293 6.4 8.0 0.00 0.00 0.00 88 1013.9
20260905023909 -17 0 4.8 4.8 0.00 0.00 0.00 87 1013.3
20260905022907 -17 293 6.4 6.4 0.00 0.00 0.00 87 1013.2
20260905021904 -17 0 4.8 4.8 0.00 0.00 0.00 88 1012.9
20260905020901 -17 293 11.3 12.9 0.00 0.00 0.00 87 1012.7
20260905015900 -17 293 4.8 4.8 0.00 0.00 0.00 86 1012.9
20260905014856 -17 315 6.4 8.0 0.00 0.00 0.00 85 1012.3
20260905013855 -17 293 8.0 9.7 0.00 0.00 0.00 85 1012.1
20260905012851 -17 0 6.4 8.0 0.00 0.00 0.00 84 1012.3
20260905011849 -17 293 9.7 11.3 0.00 0.00 0.00 85 1012.2
20260905010844 -17 315 12.9 17.7 0.00 0.00 0.00 84 1012.2
20260905005842 -17 293 8.0 9.7 0.00 0.00 0.00 83 1012.0
20260905004840 -17 0 17.7 20.9 0.00 0.00 0.00 82 1012.0
20260905003838 -17 293 14.5 17.7 0.00 0.00 0.00 82 1011.7
20260905002837 -17 270 9.7 12.9 0.00 0.00 0.00 83 1011.5
20260905001834 -17 0 12.9 25.7 0.00 0.00 0.00 84 1011.1
20260905000831 -17 293 19.3 25.7 0.00 0.00 0.00 84 1011.0
20260904235827 -17 270 24.1 29.0 0.00 0.00 0.00 82 1010.7
20260904234826 -17 270 24.1 33.8 0.00 0.00 0.00 81 1009.7
20260904233824 -17 0 12.9 14.5 0.00 0.00 0.00 79 1009.0
20260904232823 -17 315 6.4 6.4 0.00 0.00 0.00 81 1008.9
20260904231820 -17 270 3.2 3.2 0.00 0.00 0.00 81 1009.1
20260904230817 -17 270 0.0 0.0 0.00 0.00 0.00 83 1009.2
20260904225813 -17 315 1.6 1.6 0.00 0.00 0.00 84 1009.2
20260904224811 -17 225 0.0 0.0 0.00 0.00 0.00 85 1009.2
20260904223808 -17 315 0.0 0.0 0.00 0.00 0.00 85 1009.2
20260904222807 -17 315 1.6 1.6 0.00 0.00 0.00 85 1009.2
20260904221804 -17 315 0.0 0.0 0.00 0.00 0.00 85 1009.2
20260904220803 -17 315 0.0 0.0 0.00 0.00 0.00 83 1009.2
20260904215759 -17 315 0.0 0.0 0.00 0.00 0.00 83 1009.1
20260904214755 -17 135 0.0 0.0 0.00 0.00 0.00 82 1009.1
20260904213751 -17 135 0.0 0.0 0.00 0.00 0.00 83 1009.0
20260904212747 -17 315 0.0 0.0 0.00 0.00 0.00 82 1009.0
20260904211746 -17 315 0.0 0.0 0.00 0.00 0.00 80 1008.9
20260904210744 -17 270 0.0 0.0 0.00 0.00 0.00 80 1008.8
20260904205741 -17 225 0.0 0.0 0.00 0.00 0.00 79 1008.8
20260904204738 -17 270 0.0 0.0 0.00 0.00 0.00 78 1008.8
20260904203737 -17 225 0.0 0.0 0.00 0.00 0.00 77 1008.7
20260904202736 -17 225 0.0 0.0 0.00 0.00 0.00 77 1008.6
20260904201734 -17 270 0.0 0.0 0.00 0.00 0.00 76 1008.7
20260904200732 -17 270 0.0 0.0 0.00 0.00 0.00 76 1008.8